ALOS (DAICHI) (28931 NORAD) Tracking and Keplerian Element Data

This shows tracking and keplerian element data for the satellite.

Feedback or suggestion? Click here.




ElementValue
Catalog28931
NameALOS (DAICHI)
Epoch Orbit68356
Epoch Day323.87547739
Epoch Year2018
RAAN329.2442
Inclination97.8169
Eccentricity0.0002029
Argument of Perigee93.0363
Mean Anonmoly267.1073
Mean Motion14.62550332
Decay Rate1.15E-06
L11 28931U 06002A 18323.87547739 .00000115 00000-0 31171-4 0 9992
L22 28931 97.8169 329.2442 0002029 93.0363 267.1073 14.62550332683563

Live tracking and technical data element details for ALOS (DAICHI) (NORAD 28931). ALOS (DAICHI) can be tracked NOW for your location showing map with azimuth and elevation plus other details from your city location.

Track the satellite on the map from your city or location and see movement details for azimuth, elevation, latitude, longitude, range, height, and movement on the map or in text.







IsCatalogInMostPopularTable: catalog: 28931, numindb: 39
Update: records affected: 1



GetName: 28931 ALOS (DAICHI)

Hit Count: updated at: Wed, 21 Nov 2018 05:25:38 GMT